STARLINK-37470, 68820

Orbit data source: Space-Track

STARLINK-37470, 68820 is a payload satellite owned by SpaceX/Seattle (US) in SSO that was launched on Thu, 23 Apr 2026 UTC via an FALCON 9 launch vehicle from the Air Force Western Test Range (AFWTR). Payload-class satellites include a variety of spacecraft equipped with specific instruments for various scientific and technological missions. These include communications satellites like Starlink; space stations such as the ISS; scientific satellites like the Hubble; Earth observation satellites from companies like Planet Labs, Umbra, and HawkEye 360; GPS; miniature CubeSats for education and research; and military/defense satellites.

Loading next visibility...
Identifier
68820, 2026-089U
Orbit
SSO
Country
Flag of USUS
Related business
Manufacturer
SpaceX/Seattle
Mission
Operational spacecraft
Bus & Motor
STARLINK V2MO, Unknown motor
Mass
575 kg wet, ~530 kg dry
Launch date (UTC)
2026-04-23 (2 months ago)
Launch vehicle
FALCON 9
Launch site
Air Force Western Test Range (AFWTR)
Object type
Payload
Rocket body
Debris
Shape & HBR
Unknown shape, 14.5 m
Radar Cross Section
Large (>1 m²)

Expand to show TLE details & history
Last TLE update: 1 day ago

TLE from 1 day ago
0 STARLINK-37470
1 68820U 26089U   26170.65220381  .00023587  00000-0  73053-3 0  9998
2 68820  97.2856  17.7846 0002008 108.0828 252.0633 15.33449336  9037
Epoch: 2026-06-19T15:39Z
TLE epoch observation values (Epoch: 2026-06-19T15:39:10.409Z)
Latitude
-0.00006°
Longitude
-124.88687°
Altitude
469.066 km
Speed
7.631 km/s
True Right ascension
01h 11m 08s
True Declination
0° 00' 00"
Sunlit
Object was in daylight at epoch
Visualization orbit readout
Latitude
Unknown
Longitude
Unknown
Altitude
Unknown
Speed
Unknown
Apparent Right ascension
Unknown
Apparent Declination
Unknown
Sunlit
N/A
Visualization observer readout
Local Sidereal Time
07:23:01
Azimuth
Unknown
Elevation
Unknown
Doppler factor
Unknown
Orbital elements
Apogee altitude
463.847 km
Perigee altitude
461.099 km
Semi-major axis
6,840.61 km
Eccentricity
0.0002
Inclination
97.2856°
RAAN
17.7846°
Arg. of periapsis
108.0828°
True anomaly
252.04141°
Mean anomaly
252.0633°
Eccentric anomaly
252.05235°
Mean motion
3.8362 °/min
Orbital period
93.84 mins
BSTAR
0.00073053
Loading maneuver chart data...
Computing Atmospheric mass density...
Loading historical data...
Loading historical data...
Loading historical data...
Loading historical data...
Loading historical data...
Loading historical data...
Loading historical data...

Documentation

Showing up to 5 results
|